Weather History for KLSB - March, 2013

Change the Weather History Date:

Friday, March 15, 2013

  Actual Average Record
Temperature  
Mean Temperature 60 °F -  
Max Temperature 86 °F 68 °F 86 °F (2013)
Min Temperature 33 °F 30 °F 33 °F (2013)
Degree Days  
Heating Degree Days 6    
Growing Degree Days 10 (Base 50)    
Moisture  
Dew Point 13 °F    
Average Humidity 18    
Maximum Humidity 38    
Minimum Humidity 6    
Precipitation  
Precipitation 0.00 in - - ()
Sea Level Pressure  
Sea Level Pressure 30.11 in    
Wind  
Wind Speed 5 mph (WSW)    
Max Wind Speed 18 mph    
Max Gust Speed 24 mph    
Visibility 10 miles    
Events      
Averages and records for this station are not official NWS values.
T = Trace of Precipitation, MM = Missing Value Source: NWS Daily Summary

Daily Weather History Graph

Daily Weather History Graph

Search for Another Location

Airport or City:

Trip Planner

Search our weather history database for the weather conditions in past years. The results will help you decide how hot, cold, wet, or windy it might be!

Date:

Astronomy

Mar. 15, 2013 Rise Set
Actual Time 7:24 AM MDT 7:23 PM MDT
Civil Twilight 7:00 AM MDT 7:47 PM MDT
Nautical Twilight 6:31 AM MDT 8:15 PM MDT
Astronomical Twilight 6:03 AM MDT 8:44 PM MDT
Moon 9:31 AM MDT (3/15) 11:23 PM MDT (3/15)
Length of Visible Light 12h 47m
Length of Day
11h 58m
Waxing Crescent, 16% of the Moon is Illuminated
Mar 15
Waxing Crescent
Mar 19
First Quarter
Mar 27
Full
Apr 2
Last Quarter
Apr 10
New

Hourly Weather History & Observations

Time (MDT) Temp. Windchill Dew Point Humidity Pressure Visibility Wind Dir Wind Speed Gust Speed Precip Events Conditions
12:15 AM 53.6 °F - 10.4 °F 18% 30.20 in 10.0 mi South 9.2 mph - N/A   Clear
12:35 AM 53.6 °F - 10.4 °F 18% 30.19 in 10.0 mi South 9.2 mph - N/A   Clear
12:55 AM 53.6 °F - 10.4 °F 18% 30.19 in 10.0 mi South 8.1 mph - N/A   Clear
1:15 AM 53.6 °F - 10.4 °F 18% 30.19 in 10.0 mi South 8.1 mph - N/A   Clear
1:35 AM 48.2 °F - 10.4 °F 22% 30.19 in 10.0 mi South 5.8 mph - N/A   Clear
1:55 AM 46.4 °F - 10.4 °F 23% 30.19 in 10.0 mi Calm Calm - N/A   Clear
2:15 AM 42.8 °F - 10.4 °F 27% 30.19 in 10.0 mi Calm Calm - N/A   Clear
2:35 AM 42.8 °F - 10.4 °F 27% 30.19 in 10.0 mi Calm Calm - N/A   Clear
2:55 AM 42.8 °F 41.1 °F 10.4 °F 27% 30.19 in 10.0 mi SE 3.5 mph - N/A   Clear
3:15 AM 44.6 °F 42.2 °F 10.4 °F 25% 30.18 in 10.0 mi SSE 4.6 mph - N/A   Clear
3:35 AM 42.8 °F 40.1 °F 12.2 °F 29% 30.18 in 10.0 mi SSE 4.6 mph - N/A   Clear
3:55 AM 41.0 °F - 12.2 °F 31% 30.17 in 10.0 mi Calm Calm - N/A   Clear
4:15 AM 41.0 °F - 12.2 °F 31% 30.18 in 10.0 mi Calm Calm - N/A   Clear
4:35 AM 39.2 °F - 12.2 °F 33% 30.17 in 10.0 mi Calm Calm - N/A   Clear
4:55 AM 37.4 °F - 10.4 °F 33% 30.17 in 10.0 mi Calm Calm - N/A   Clear
5:15 AM 37.4 °F 33.8 °F 12.2 °F 36% 30.17 in 10.0 mi SSE 4.6 mph - N/A   Clear
5:35 AM 41.0 °F 39.0 °F 12.2 °F 31% 30.17 in 10.0 mi SSE 3.5 mph - N/A   Clear
5:55 AM 42.8 °F 40.1 °F 12.2 °F 29% 30.18 in 10.0 mi SSE 4.6 mph - N/A   Clear
6:15 AM 41.0 °F - 12.2 °F 31% 30.18 in 10.0 mi Calm Calm - N/A   Clear
6:35 AM 35.6 °F - 10.4 °F 35% 30.18 in 10.0 mi Calm Calm - N/A   Clear
6:55 AM 33.8 °F - 10.4 °F 38% 30.18 in 10.0 mi Calm Calm - N/A   Clear
7:15 AM 37.4 °F - 10.4 °F 33% 30.18 in 10.0 mi Calm Calm - N/A   Clear
7:35 AM 37.4 °F 33.8 °F 12.2 °F 36% 30.18 in 10.0 mi South 4.6 mph - N/A   Clear
7:55 AM 41.0 °F 39.0 °F 14.0 °F 33% 30.19 in 10.0 mi South 3.5 mph - N/A   Clear
8:15 AM 44.6 °F - 14.0 °F 29% 30.19 in 10.0 mi Calm Calm - N/A   Clear
8:35 AM 44.6 °F 43.1 °F 14.0 °F 29% 30.20 in 10.0 mi East 3.5 mph - N/A   Clear
9:55 AM 55.4 °F - 15.8 °F 21% 30.20 in 10.0 mi North - - N/A   Clear
10:15 AM 60.8 °F - 15.8 °F 17% 30.20 in 10.0 mi Calm Calm - N/A   Clear
10:35 AM 66.2 °F - 17.6 °F 15% 30.20 in 10.0 mi Calm Calm - N/A   Clear
10:55 AM 68.0 °F - 17.6 °F 15% 30.19 in 10.0 mi SE 5.8 mph - N/A   Clear
11:15 AM 71.6 °F - 15.8 °F 12% 30.19 in 10.0 mi SSE 4.6 mph - N/A   Clear
11:35 AM 73.4 °F - 14.0 °F 10% 30.18 in 10.0 mi SSE 3.5 mph - N/A   Clear
11:55 AM 73.4 °F - 12.2 °F 10% 30.17 in 10.0 mi SSE 3.5 mph - N/A   Clear
12:15 PM 77.0 °F - 14.0 °F 9% 30.16 in 10.0 mi Calm Calm - N/A   Clear
12:35 PM 78.8 °F - 14.0 °F 9% 30.15 in 10.0 mi Calm Calm - N/A   Clear
12:55 PM 78.8 °F - 14.0 °F 9% 30.14 in 10.0 mi East 4.6 mph - N/A   Clear
1:15 PM 80.6 °F - 14.0 °F 8% 30.13 in 10.0 mi Calm Calm - N/A   Clear
1:35 PM 80.6 °F - 14.0 °F 8% 30.12 in 10.0 mi NW 3.5 mph - N/A   Clear
1:55 PM 82.4 °F - 14.0 °F 8% 30.10 in 10.0 mi NW 9.2 mph - N/A   Clear
2:15 PM 82.4 °F - 12.2 °F 7% 30.09 in 10.0 mi SSW 6.9 mph - N/A   Clear
2:35 PM 84.2 °F - 10.4 °F 6% 30.08 in 10.0 mi West 8.1 mph 16.1 mph N/A   Clear
2:55 PM 84.2 °F - 10.4 °F 6% 30.07 in 10.0 mi West 11.5 mph 19.6 mph N/A   Clear
3:15 PM 84.2 °F - 10.4 °F 6% 30.06 in 10.0 mi West 11.5 mph 16.1 mph N/A   Clear
3:35 PM 84.2 °F - 10.4 °F 6% 30.04 in 10.0 mi NW 6.9 mph - N/A   Clear
3:55 PM 84.2 °F - 10.4 °F 6% 30.04 in 10.0 mi WNW 6.9 mph - N/A   Clear
4:15 PM 84.2 °F - 10.4 °F 6% 30.03 in 10.0 mi West 5.8 mph 19.6 mph N/A   Clear
4:35 PM 86.0 °F - 12.2 °F 6% 30.03 in 10.0 mi WNW 18.4 mph 24.2 mph N/A   Clear
4:55 PM 86.0 °F - 12.2 °F 6% 30.02 in 10.0 mi WNW 13.8 mph - N/A   Clear
5:15 PM 86.0 °F - 12.2 °F 6% 30.02 in 10.0 mi West 11.5 mph 19.6 mph N/A   Clear
5:35 PM 84.2 °F - 10.4 °F 6% 30.01 in 10.0 mi West 9.2 mph 19.6 mph N/A   Clear
5:55 PM 82.4 °F - 10.4 °F 7% 30.00 in 10.0 mi WNW 10.4 mph - N/A   Clear
6:15 PM 82.4 °F - 10.4 °F 7% 30.00 in 10.0 mi NW 5.8 mph - N/A   Clear
6:35 PM 82.4 °F - 10.4 °F 7% 29.99 in 10.0 mi WNW 5.8 mph - N/A   Clear
6:55 PM 80.6 °F - 10.4 °F 7% 29.99 in 10.0 mi NNW 8.1 mph - N/A   Clear
7:15 PM 77.0 °F - 10.4 °F 8% 29.99 in 10.0 mi NW 8.1 mph - N/A   Clear
7:35 PM 73.4 °F - 10.4 °F 9% 29.99 in 10.0 mi North - - N/A   Clear
7:55 PM 68.0 °F - 10.4 °F 11% 30.00 in 10.0 mi West 5.8 mph - N/A   Clear
8:15 PM 68.0 °F - 10.4 °F 11% 30.00 in 10.0 mi West 8.1 mph - N/A   Clear
8:35 PM 68.0 °F - 12.2 °F 12% 30.00 in 10.0 mi WNW 8.1 mph - N/A   Clear
8:55 PM 68.0 °F - 14.0 °F 12% 30.01 in 10.0 mi WNW 9.2 mph - N/A   Clear
9:15 PM 68.0 °F - 17.6 °F 15% 30.02 in 10.0 mi WNW 10.4 mph - N/A   Clear
9:35 PM 68.0 °F - 19.4 °F 16% 30.02 in 10.0 mi WNW 8.1 mph - N/A   Clear
9:55 PM 66.2 °F - 21.2 °F 18% 30.02 in 10.0 mi West 8.1 mph - N/A   Clear
10:15 PM 64.4 °F - 21.2 °F 19% 30.03 in 10.0 mi West 9.2 mph - N/A   Clear
10:35 PM 64.4 °F - 21.2 °F 19% 30.03 in 10.0 mi West 9.2 mph - N/A   Clear
10:55 PM 64.4 °F - 19.4 °F 18% 30.04 in 10.0 mi WNW 5.8 mph - N/A   Clear
11:15 PM 62.6 °F - 19.4 °F 19% 30.04 in 10.0 mi NW 5.8 mph - N/A   Clear
11:35 PM 60.8 °F - 19.4 °F 20% 30.04 in 10.0 mi NW 5.8 mph - N/A   Clear
11:55 PM 60.8 °F - 19.4 °F 20% 30.03 in 10.0 mi WNW 9.2 mph - N/A   Clear